This is the latest recevied weather packets stored in our database for station/object OE6JUE. If no packets are shown the sender has not sent any weather packets the latest 10 day(s).
| Time | Temp. | Humidity | Pressure | Rain* | Wind** | Luminosity | Snow |
|---|---|---|---|---|---|---|---|
| 1788477982 | 19.44° C | 66% | 1022.1 hPa | 0 mm | - | - | - |
| 1788477683 | 19.44° C | 66% | 1022.1 hPa | 0 mm | - | - | - |
| 1788477383 | 20° C | 66% | 1022 hPa | 0 mm | - | - | - |
| 1788477083 | 20° C | 65% | 1022 hPa | 0 mm | - | - | - |
| 1788476783 | 20° C | 65% | 1022.2 hPa | 0 mm | - | - | - |
| 1788476483 | 20° C | 64% | 1022.2 hPa | 85.85 mm | - | - | - |
| 1788476183 | 20° C | 64% | 1022.1 hPa | 0 mm | - | - | - |
| 1788475883 | 20.56° C | 63% | 1022.3 hPa | 0 mm | - | - | - |
| 1788475583 | 20.56° C | 62% | 1022.1 hPa | 0 mm | - | - | - |
| 1788475283 | 21.11° C | 61% | 1022.1 hPa | 0 mm | - | - | - |
| 1788474989 | 21.11° C | 58% | 1021.9 hPa | 0 mm | - | - | - |
| 1788474683 | 21.11° C | 57% | 1021.9 hPa | 0 mm | - | - | - |
| 1788474383 | 21.11° C | 58% | 1022.1 hPa | 0 mm | - | - | - |
| 1788474083 | 20.56° C | 60% | 1022 hPa | 0 mm | - | - | - |
| 1788473783 | 20.56° C | 61% | 1022 hPa | 0 mm | - | - | - |
| 1788473482 | 20° C | 63% | 1022 hPa | 0 mm | - | - | - |
| 1788473183 | 20° C | 66% | 1021.8 hPa | 0 mm | - | - | - |
| 1788472883 | 20° C | 70% | 1022 hPa | 85.85 mm | - | - | - |
| 1788472583 | 20° C | 70% | 1021.9 hPa | 0 mm | - | - | - |
| 1788472282 | 20° C | 69% | 1022 hPa | 0 mm | - | - | - |
| 1788471983 | 20.56° C | 65% | 1022 hPa | 0 mm | - | - | - |
| 1788471683 | 20.56° C | 66% | 1021.9 hPa | 0 mm | - | - | - |
| 1788471384 | 20° C | 67% | 1021.9 hPa | 0 mm | - | - | - |
| 1788471082 | 20° C | 70% | 1022.2 hPa | 0 mm | - | - | - |
| 1788470783 | 20° C | 69% | 1022.1 hPa | 0 mm | - | - | - |
* Rain latest hour (hover to see other rain measurements)
** Current wind speed in m/s (hover to see current wind gust speed)